TITAN 3C TRANSTAGE R/B, 2770

Orbit data source: Space-Track

TITAN 3C TRANSTAGE R/B, 2770 is space debris in HEO originally from a launch on Fri, 28 Apr 1967 UTC launched from the Air Force Eastern Test Range (AFETR). Debris objects in space refer to the collection of defunct objects orbiting the Earth. Examples of debris include non-operational satellites, rocket bodies, and fragments generated from explosions, collisions, or faulty payload assembly.

Loading next visibility...
Identifier
2770, 1967-040F
Orbit
HEO
Country
Flag of USUS
Related business
Manufacturer
Martin Marietta
Mission
Spacecraft
Bus & Motor
TRANSTAGE, Unknown motor
Mass
3,103 kg wet, 3,103 kg dry
Launch date (UTC)
1967-04-28 (58 years ago)
Launch vehicle
Unknown
Launch site
Air Force Eastern Test Range (AFETR)
Object type
Payload
Rocket body
Debris
Shape & HBR
Cyl + 2 Nozzle, 2.3 m
Radar Cross Section
14.974 m², Large (>1 m²)

Expand to show TLE details & history
Last TLE update: in 1 day

TLE from in 1 day
0 TITAN 3C TRANSTAGE R/B
1 02770U 67040F   25259.41917315 -.00001044  00000-0  00000-0 0  9997
2 02770  17.7300 215.1721 7833325 340.4047 359.3550  0.50945466 21909
Epoch: 2025-09-16T10:03Z
TLE epoch observation values (Epoch: 2025-09-16T10:03:36.56Z)
Latitude
-5.63593°
Longitude
50.63159°
Altitude
7,856.771 km
Speed
7.07 km/s
True Right ascension
13h 08m 34s
True Declination
-5° 37' 09"
Sunlit
Object was in daylight at epoch
Visualization orbit readout
Latitude
Unknown
Longitude
Unknown
Altitude
Unknown
Speed
Unknown
Apparent Right ascension
Unknown
Apparent Declination
Unknown
Sunlit
N/A
Visualization observer readout
Local Sidereal Time
02:47:44
Azimuth
Unknown
Elevation
Unknown
Doppler factor
Unknown
Orbital elements
Apogee altitude
111,720.905 km
Perigee altitude
7,970.407 km
Semi-major axis
66,223.793 km
Eccentricity
0.78333
Inclination
17.73°
RAAN
215.1721°
Arg. of periapsis
340.4047°
True anomaly
351.48707°
Mean anomaly
359.355°
Eccentric anomaly
357.02791°
Mean motion
0.12736 °/min
Orbital period
2,826.7 mins
BSTAR
0
Loading maneuver chart data...
Computing Atmospheric mass density...
Loading historical data...
Loading historical data...
Loading historical data...
Loading historical data...
Loading historical data...
Loading historical data...
Loading historical data...

Documentation

Showing up to 5 results
|